UAE29N EDDS-EDDN

Flight info

Callsign UAE29N
Flight time 0h 30m
Altitude 17000
Route DKB9B DKB N869 LETKU LETKU1V
Aircraft A339/H-SADE1E2E3GHIJ3J5M1P2RWXY/LB2D1

Departure

Time 2026-05-05 15:42
Airport Stuttgart Airport (EDDS)

Arrival

Time 2026-05-05 16:13
Airport Nuremberg Airport (EDDN)
Time Latitude Longitude Altitude Speed Heading
2026-05-05 15:10 48.69087 9.20563 1284 ft 0 kts 164°
2026-05-05 15:27 48.69094 9.20561 1287 ft 2 kts 164°
2026-05-05 15:27 48.69106 9.20554 1287 ft 1 kts 177°
2026-05-05 15:28 48.69119 9.20552 1289 ft 2 kts 204°
2026-05-05 15:28 48.69130 9.20557 1290 ft 1 kts 246°
2026-05-05 15:28 48.69134 9.20575 1287 ft 2 kts 266°
2026-05-05 15:28 48.69137 9.20609 1288 ft 2 kts 254°
2026-05-05 15:29 48.69138 9.20613 1288 ft 0 kts 253°
2026-05-05 15:34 48.69132 9.20584 1290 ft 9 kts 253°
2026-05-05 15:34 48.69058 9.20480 1284 ft 21 kts 183°
2026-05-05 15:35 48.68972 9.20605 1277 ft 0 kts 128°
2026-05-05 15:35 48.68965 9.20632 1276 ft 0 kts 107°
2026-05-05 15:35 48.68964 9.20635 1276 ft 3 kts 107°
2026-05-05 15:35 48.68975 9.20758 1278 ft 20 kts 76°
2026-05-05 15:36 48.69028 9.21036 1271 ft 35 kts 73°
2026-05-05 15:36 48.69092 9.21367 1271 ft 28 kts 76°
2026-05-05 15:36 48.69146 9.21660 1263 ft 30 kts 74°
2026-05-05 15:36 48.69206 9.21978 1257 ft 33 kts 73°
2026-05-05 15:37 48.69272 9.22323 1240 ft 34 kts 73°
2026-05-05 15:37 48.69339 9.22672 1232 ft 35 kts 75°
2026-05-05 15:37 48.69403 9.23021 1228 ft 35 kts 74°
2026-05-05 15:37 48.69467 9.23346 1218 ft 34 kts 73°
2026-05-05 15:38 48.69532 9.23699 1210 ft 35 kts 74°
2026-05-05 15:38 48.69601 9.24052 1203 ft 35 kts 74°
2026-05-05 15:38 48.69552 9.24283 1197 ft 18 kts 139°
2026-05-05 15:38 48.69499 9.24315 1195 ft 0 kts 161°
2026-05-05 15:40 48.69488 9.24320 1195 ft 10 kts 161°
2026-05-05 15:41 48.69387 9.24295 1195 ft 17 kts 227°
2026-05-05 15:41 48.69367 9.24205 1196 ft 0 kts 255°
2026-05-05 15:41 48.69366 9.24199 1197 ft 4 kts 255°
2026-05-05 15:41 48.69287 9.23781 1206 ft 86 kts 253°
2026-05-05 15:42 48.69047 9.22509 1253 ft 160 kts 254°
2026-05-05 15:42 48.68729 9.20780 1856 ft 174 kts 255°
2026-05-05 15:42 48.68427 9.18972 2764 ft 177 kts 256°
2026-05-05 15:42 48.68138 9.17146 3648 ft 180 kts 257°
2026-05-05 15:43 48.67791 9.15238 4269 ft 198 kts 253°
2026-05-05 15:43 48.67338 9.13158 4794 ft 217 kts 251°
2026-05-05 15:43 48.66845 9.10865 5099 ft 241 kts 257°
2026-05-05 15:43 48.66864 9.08320 5181 ft 247 kts 284°
2026-05-05 15:44 48.67654 9.06074 5183 ft 247 kts 312°
2026-05-05 15:44 48.69070 9.04617 5184 ft 249 kts 339°
2026-05-05 15:44 48.70779 9.04243 5180 ft 254 kts 358°
2026-05-05 15:44 48.72573 9.04130 5167 ft 260 kts 355°
2026-05-05 15:45 48.74372 9.03791 5166 ft 260 kts 353°
2026-05-05 15:45 48.76173 9.03960 5165 ft 260 kts 14°
2026-05-05 15:45 48.77767 9.05160 5178 ft 261 kts 39°
2026-05-05 15:45 48.78926 9.07265 5184 ft 262 kts 56°
2026-05-05 15:46 48.79943 9.09566 5241 ft 265 kts 56°
2026-05-05 15:46 48.80989 9.11881 5894 ft 264 kts 55°
2026-05-05 15:46 48.82041 9.14167 6605 ft 265 kts 55°
2026-05-05 15:46 48.83110 9.16466 7246 ft 268 kts 54°
2026-05-05 15:47 48.84191 9.18779 7900 ft 270 kts 54°
2026-05-05 15:47 48.84913 9.20326 8336 ft 272 kts 54°
2026-05-05 15:47 48.86420 9.23560 8984 ft 287 kts 54°
2026-05-05 15:47 48.87576 9.26047 9758 ft 289 kts 54°
2026-05-05 15:48 48.88730 9.28533 10378 ft 297 kts 54°
2026-05-05 15:48 48.89968 9.31203 10596 ft 320 kts 54°
2026-05-05 15:48 48.91213 9.34129 10827 ft 339 kts 61°
2026-05-05 15:48 48.92189 9.37421 11452 ft 343 kts 69°
2026-05-05 15:49 48.93048 9.40823 12098 ft 347 kts 69°
2026-05-05 15:49 48.93937 9.44272 12755 ft 350 kts 68°
2026-05-05 15:49 48.94839 9.47739 13402 ft 353 kts 68°
2026-05-05 15:49 48.95751 9.51245 13836 ft 357 kts 68°
2026-05-05 15:50 48.96651 9.54710 13972 ft 358 kts 68°
2026-05-05 15:50 48.97566 9.58241 14002 ft 358 kts 68°
2026-05-05 15:50 48.98477 9.61767 14002 ft 358 kts 68°
2026-05-05 15:50 48.99388 9.65294 14001 ft 358 kts 68°
2026-05-05 15:51 49.00297 9.68821 14001 ft 358 kts 69°
2026-05-05 15:51 49.01208 9.72363 13998 ft 358 kts 69°
2026-05-05 15:51 49.02115 9.75898 13998 ft 358 kts 69°
2026-05-05 15:51 49.03019 9.79424 13999 ft 358 kts 69°
2026-05-05 15:52 49.03926 9.82968 13997 ft 358 kts 69°
2026-05-05 15:52 49.04832 9.86512 14002 ft 358 kts 69°
2026-05-05 15:52 49.05737 9.90059 14002 ft 358 kts 69°
2026-05-05 15:52 49.06637 9.93593 14001 ft 358 kts 69°
2026-05-05 15:53 49.07528 9.97100 13995 ft 358 kts 69°
2026-05-05 15:53 49.08427 10.00647 14002 ft 358 kts 69°
2026-05-05 15:53 49.09324 10.04192 14003 ft 358 kts 69°
2026-05-05 15:53 49.10222 10.07738 13998 ft 358 kts 69°
2026-05-05 15:54 49.11119 10.11290 14002 ft 358 kts 69°
2026-05-05 15:54 49.12015 10.14842 14002 ft 359 kts 69°
2026-05-05 15:54 49.12910 10.18394 13999 ft 359 kts 69°
2026-05-05 15:54 49.13885 10.21896 14002 ft 358 kts 62°
2026-05-05 15:55 49.15222 10.25115 13999 ft 358 kts 52°
2026-05-05 15:55 49.16884 10.27942 13999 ft 358 kts 44°
2026-05-05 15:55 49.18636 10.30583 13996 ft 358 kts 44°
2026-05-05 15:55 49.20394 10.33275 14004 ft 358 kts 45°
2026-05-05 15:56 49.22154 10.35999 13986 ft 358 kts 45°
2026-05-05 15:56 49.23910 10.38730 14000 ft 358 kts 45°
2026-05-05 15:56 49.25660 10.41428 14003 ft 358 kts 45°
2026-05-05 15:56 49.27424 10.44120 13997 ft 358 kts 44°
2026-05-05 15:57 49.29167 10.46773 14003 ft 358 kts 44°
2026-05-05 15:57 49.30936 10.49471 14000 ft 358 kts 44°
2026-05-05 15:57 49.32703 10.52172 13997 ft 358 kts 45°
2026-05-05 15:57 49.34462 10.54868 14008 ft 358 kts 45°
2026-05-05 15:58 49.36220 10.57575 14003 ft 358 kts 45°
2026-05-05 15:58 49.37971 10.60292 14005 ft 358 kts 45°
2026-05-05 15:58 49.39719 10.63014 14008 ft 357 kts 45°
2026-05-05 15:58 49.41452 10.65761 13981 ft 357 kts 49°
2026-05-05 15:59 49.42725 10.68975 14001 ft 358 kts 68°
2026-05-05 15:59 49.43237 10.72692 13995 ft 358 kts 88°
2026-05-05 15:59 49.42998 10.76497 13995 ft 358 kts 99°
2026-05-05 15:59 49.42571 10.80265 13998 ft 358 kts 100°
2026-05-05 16:00 49.42137 10.84035 13996 ft 358 kts 100°
2026-05-05 16:00 49.41726 10.87814 13999 ft 358 kts 99°
2026-05-05 16:00 49.41339 10.91598 14000 ft 358 kts 99°
2026-05-05 16:00 49.40966 10.95377 13997 ft 358 kts 98°
2026-05-05 16:01 49.40601 10.99120 14000 ft 358 kts 98°
2026-05-05 16:01 49.40234 11.02897 14002 ft 358 kts 98°
2026-05-05 16:01 49.39865 11.06673 13907 ft 356 kts 98°
2026-05-05 16:01 49.39497 11.10431 13345 ft 358 kts 98°
2026-05-05 16:02 49.39121 11.14240 12611 ft 360 kts 98°
2026-05-05 16:02 49.38747 11.18025 11866 ft 357 kts 98°
2026-05-05 16:02 49.38373 11.21775 11139 ft 354 kts 98°
2026-05-05 16:02 49.38004 11.25484 10448 ft 349 kts 99°
2026-05-05 16:03 49.37638 11.29138 10124 ft 348 kts 99°
2026-05-05 16:03 49.37266 11.32823 10018 ft 349 kts 99°
2026-05-05 16:03 49.36896 11.36485 9998 ft 342 kts 99°
2026-05-05 16:03 49.36543 11.39969 9997 ft 317 kts 99°
2026-05-05 16:04 49.36222 11.43141 9997 ft 293 kts 99°
2026-05-05 16:04 49.35909 11.46208 9996 ft 294 kts 99°
2026-05-05 16:04 49.35594 11.49295 9945 ft 291 kts 99°
2026-05-05 16:04 49.35280 11.52362 9619 ft 289 kts 99°
2026-05-05 16:05 49.35076 11.54419 9288 ft 287 kts 97°
2026-05-05 16:05 49.35221 11.57406 8698 ft 286 kts 73°
2026-05-05 16:05 49.36144 11.60078 8089 ft 283 kts 49°
2026-05-05 16:05 49.37688 11.61900 7491 ft 280 kts 24°
2026-05-05 16:06 49.39561 11.62622 6911 ft 276 kts
2026-05-05 16:06 49.41472 11.62588 6271 ft 275 kts 347°
2026-05-05 16:06 49.43190 11.61407 5681 ft 271 kts 323°
2026-05-05 16:06 49.44399 11.59365 5204 ft 257 kts 301°
2026-05-05 16:07 49.44996 11.56820 4461 ft 253 kts 278°
2026-05-05 16:07 49.45223 11.54158 3672 ft 251 kts 277°
2026-05-05 16:07 49.45448 11.51543 3109 ft 247 kts 277°
2026-05-05 16:07 49.45696 11.48888 2884 ft 254 kts 278°
2026-05-05 16:08 49.45964 11.46203 3279 ft 249 kts 278°
2026-05-05 16:08 49.46220 11.43786 3740 ft 214 kts 279°
2026-05-05 16:08 49.46455 11.41604 3661 ft 199 kts 279°
2026-05-05 16:08 49.46668 11.39574 3542 ft 185 kts 278°
2026-05-05 16:09 49.46858 11.37686 3445 ft 176 kts 278°
2026-05-05 16:09 49.47049 11.35767 3421 ft 182 kts 278°
2026-05-05 16:09 49.47250 11.33832 3219 ft 186 kts 279°
2026-05-05 16:09 49.47460 11.31882 3049 ft 187 kts 279°
2026-05-05 16:10 49.47668 11.29924 3028 ft 177 kts 279°
2026-05-05 16:10 49.47853 11.28153 3155 ft 160 kts 279°
2026-05-05 16:10 49.48044 11.26457 2826 ft 164 kts 281°
2026-05-05 16:10 49.48258 11.24705 2491 ft 167 kts 281°
2026-05-05 16:11 49.48450 11.22931 2160 ft 168 kts 279°
2026-05-05 16:11 49.48962 11.18079 1510 ft 140 kts 276°
2026-05-05 16:12 49.49054 11.16419 1899 ft 160 kts 274°
2026-05-05 16:12 49.49386 11.12703 1377 ft 173 kts 279°
2026-05-05 16:13 49.49806 11.08455 1049 ft 24 kts 279°
2026-05-05 16:13 49.49845 11.08077 1050 ft 45 kts 279°
2026-05-05 16:13 49.49871 11.07673 1052 ft 14 kts 249°
2026-05-05 16:14 49.49772 11.07691 1052 ft 18 kts 153°
2026-05-05 16:14 49.49742 11.07714 1051 ft 0 kts 153°
2026-05-05 16:15 49.49606 11.07779 1045 ft 17 kts 166°
2026-05-05 16:15 49.49550 11.08145 1044 ft 17 kts 99°
2026-05-05 16:16 49.49494 11.08307 1043 ft 11 kts 169°
2026-05-05 16:16 49.49461 11.08298 1042 ft 0 kts 186°